Altus AFB, OK

1:47 AM CST on December 15, 2017 (GMT -0600)
Altus Air Force Base

Weather History for KLTS - August, 2014

Change the Weather History Date:

Saturday, August 9, 2014

  Actual Average Record
Temperature  
Mean Temperature 84 °F -  
Max Temperature 97 °F 93 °F 108 °F (2011)
Min Temperature 73 °F 70 °F 66 °F (1997)
Cooling Degree Days 20    
Growing Degree Days 34 (Base 50)    
Moisture  
Dew Point 68 °F    
Average Humidity 66    
Maximum Humidity 86    
Minimum Humidity 35    
Precipitation  
Precipitation 0.00 in - - ()
Sea Level Pressure  
Sea Level Pressure 29.94 in    
Wind  
Wind Speed 7 mph (SSE)    
Max Wind Speed 14 mph    
Max Gust Speed -    
Visibility 10 miles    
Events Thunderstorm    
Averages and records for this station are not official NWS values.
T = Trace of Precipitation, MM = Missing Value Source: NWS Daily Summary

Daily Weather History Graph

Daily Weather History Graph

Search for Another Location

Airport or City:

Trip Planner

Search our weather history database for the weather conditions in past years. The results will help you decide how hot, cold, wet, or windy it might be!

Date:

Astronomy

Aug. 09, 2014 Rise Set
Actual Time 6:53 AM CDT 8:31 PM CDT
Civil Twilight 6:26 AM CDT 8:58 PM CDT
Nautical Twilight 5:53 AM CDT 9:30 PM CDT
Astronomical Twilight 5:19 AM CDT 10:05 PM CDT
Moon 7:35 PM CDT (8/9) 5:35 AM CDT (8/9)
Length of Visible Light 14h 32m
Length of Day
13h 38m
Waxing Gibbous, 98% of the Moon is Illuminated
Aug 9
Waxing Gibbous
Aug 10
Full
Aug 17
Last Quarter
Aug 25
New
Sep 2
First Quarter

Hourly Weather History & Observations

Time (CDT) Temp. Heat Index Dew Point Humidity Pressure Visibility Wind Dir Wind Speed Gust Speed Precip Events Conditions
12:58 AM 78.4 °F - 61.7 °F 56% 29.91 in 10.0 mi NNE 5.8 mph - N/A   Mostly Cloudy
1:58 AM 75.9 °F - 63.9 °F 66% 29.92 in 10.0 mi South 5.8 mph - N/A   Mostly Cloudy
2:58 AM 77.4 °F - 64.0 °F 63% 29.92 in 10.0 mi South 13.8 mph - N/A   Clear
3:26 AM 75.2 °F - 68.0 °F 78% 29.97 in 10.0 mi SSE 12.7 mph - N/A   Light Drizzle
3:36 AM 73.4 °F - 68.0 °F 83% 29.97 in 10.0 mi SSE 13.8 mph - N/A   Clear
3:58 AM 73.8 °F - 67.8 °F 82% 29.97 in 10.0 mi South 8.1 mph - 0.00 in   Scattered Clouds
4:01 AM 73.4 °F - 68.0 °F 83% 29.97 in 10.0 mi South 8.1 mph - N/A   Light Drizzle
4:11 AM 73.4 °F - 68.0 °F 83% 29.97 in 10.0 mi SW 9.2 mph - N/A   Scattered Clouds
4:58 AM 75.7 °F - 67.1 °F 74% 29.94 in 10.0 mi West 6.9 mph - 0.00 in   Overcast
5:00 AM 75.2 °F - 66.2 °F 73% 29.94 in 10.0 mi West 6.9 mph - N/A   Light Drizzle
5:17 AM 75.2 °F - 66.2 °F 73% 29.94 in 10.0 mi WNW 6.9 mph - N/A   Mostly Cloudy
5:58 AM 76.5 °F - 66.4 °F 71% 29.93 in 10.0 mi SW 9.2 mph - 0.00 in   Clear
6:27 AM 77.0 °F - 68.0 °F 74% 29.96 in 10.0 mi Calm Calm - N/A Thunderstorm Light Drizzle
6:39 AM 75.2 °F - 68.0 °F 78% 29.96 in 10.0 mi South 2.3 mph - N/A   Clear
6:58 AM 73.4 °F - 68.5 °F 85% 29.96 in 10.0 mi Variable 2.3 mph - 0.00 in   Clear
7:58 AM 73.9 °F - 69.4 °F 86% 29.97 in 10.0 mi Calm Calm - N/A   Mostly Cloudy
8:58 AM 77.7 °F - 68.5 °F 73% 29.97 in 10.0 mi NW 4.6 mph - N/A   Mostly Cloudy
9:58 AM 81.7 °F 84.5 °F 67.8 °F 63% 29.99 in 10.0 mi East 4.6 mph - N/A   Scattered Clouds
10:58 AM 84.9 °F 88.8 °F 68.9 °F 59% 29.94 in 10.0 mi ESE 6.9 mph - N/A   Mostly Cloudy
11:58 AM 83.5 °F 86.9 °F 68.9 °F 61% 29.97 in 10.0 mi ESE 5.8 mph - N/A   Mostly Cloudy
12:58 PM 85.8 °F 90.1 °F 69.4 °F 58% 29.97 in 10.0 mi SE 5.8 mph - N/A   Mostly Cloudy
1:58 PM 88.7 °F 93.0 °F 69.3 °F 52% 29.96 in 10.0 mi ESE 8.1 mph - N/A   Mostly Cloudy
2:58 PM 89.4 °F 94.8 °F 70.2 °F 53% 29.95 in 10.0 mi SSE 8.1 mph - N/A   Mostly Cloudy
3:58 PM 92.7 °F 97.2 °F 68.2 °F 45% 29.93 in 10.0 mi SSE 9.2 mph - N/A   Scattered Clouds
4:58 PM 96.1 °F 98.3 °F 64.0 °F 35% 29.89 in 10.0 mi SSW 10.4 mph - N/A   Clear
5:58 PM 94.1 °F 96.4 °F 64.8 °F 38% 29.88 in 10.0 mi SW 5.8 mph - N/A   Partly Cloudy
6:58 PM 92.1 °F 95.3 °F 66.4 °F 43% 29.88 in 10.0 mi SSE 8.1 mph - N/A   Mostly Cloudy
7:58 PM 86.5 °F 90.3 °F 68.7 °F 55% 29.88 in 10.0 mi South 11.5 mph - N/A   Scattered Clouds
8:58 PM 82.9 °F 86.3 °F 68.9 °F 62% 29.90 in 10.0 mi SE 5.8 mph - N/A   Overcast
9:58 PM 80.4 °F 83.5 °F 69.6 °F 69% 29.92 in 10.0 mi ESE 6.9 mph - N/A   Mostly Cloudy
10:58 PM 79.3 °F - 68.5 °F 69% 29.94 in 10.0 mi ESE 6.9 mph - N/A   Mostly Cloudy
11:58 PM 78.6 °F - 68.7 °F 72% 29.92 in 10.0 mi SE 4.6 mph - N/A   Overcast